TimePST,TemperatureF,Dew PointF,Humidity,Sea Level PressureIn,VisibilityMPH,Wind Direction,Wind SpeedMPH,Gust SpeedMPH,PrecipitationIn,Events,Conditions,WindDirDegrees,DateUTC
12:15 AM,55.4,55.4,100,30.09,10.0,SSW,5.8,-,N/A,,Overcast,200,2012-11-29 08:15:00
12:35 AM,55.4,55.4,100,30.08,10.0,SSW,5.8,-,N/A,,Mostly Cloudy,200,2012-11-29 08:35:00
12:55 AM,53.6,53.6,100,30.08,8.0,South,3.5,-,N/A,,Partly Cloudy,170,2012-11-29 08:55:00
1:35 AM,53.6,53.6,100,30.08,8.0,WNW,5.8,-,N/A,,Overcast,300,2012-11-29 09:35:00
1:55 AM,55.4,55.4,100,30.08,5.0,Calm,Calm,-,0.01,,Overcast,0,2012-11-29 09:55:00
2:15 AM,55.4,55.4,100,30.09,8.0,South,3.5,-,N/A,,Overcast,180,2012-11-29 10:15:00
2:35 AM,53.6,53.6,100,30.09,8.0,SE,4.6,-,N/A,,Mostly Cloudy,130,2012-11-29 10:35:00
2:55 AM,53.6,53.6,100,30.08,6.0,ESE,5.8,-,N/A,,Scattered Clouds,120,2012-11-29 10:55:00
3:15 AM,53.6,53.6,100,30.08,8.0,South,3.5,-,N/A,,Clear,170,2012-11-29 11:15:00
3:35 AM,53.6,53.6,100,30.08,10.0,SSE,5.8,-,N/A,,Clear,160,2012-11-29 11:35:00
3:55 AM,53.6,53.6,100,30.08,8.0,SSE,5.8,-,N/A,,Clear,150,2012-11-29 11:55:00
4:15 AM,53.6,53.6,100,30.08,8.0,South,3.5,-,N/A,,Clear,180,2012-11-29 12:15:00
4:35 AM,53.6,53.6,100,30.09,9.0,SSW,3.5,-,N/A,,Clear,210,2012-11-29 12:35:00
4:55 AM,53.6,53.6,100,30.09,9.0,SW,4.6,-,N/A,,Clear,230,2012-11-29 12:55:00
5:15 AM,53.6,53.6,100,30.09,9.0,SW,4.6,-,N/A,,Clear,220,2012-11-29 13:15:00
5:35 AM,53.6,53.6,100,30.10,5.0,Calm,Calm,-,N/A,,Clear,0,2012-11-29 13:35:00
5:55 AM,51.8,51.8,100,30.10,4.0,Calm,Calm,-,N/A,,Scattered Clouds,0,2012-11-29 13:55:00
6:45 AM,53.6,53.6,100,30.10,10.0,Variable,4.6,-,N/A,,Overcast,0,2012-11-29 14:45:00
8:45 AM,57.2,57.2,100,30.11,10.0,SSE,11.5,-,N/A,,Overcast,160,2012-11-29 16:45:00
9:50 AM,60.8,60.8,100,30.12,10.0,SSE,19.6,-,N/A,,Overcast,150,2012-11-29 17:50:00
10:50 AM,62.6,62.6,100,30.10,10.0,SSE,8.1,-,N/A,,Overcast,150,2012-11-29 18:50:00
11:45 AM,64.4,64.4,100,30.09,10.0,SSE,17.3,26.5,N/A,,Overcast,150,2012-11-29 19:45:00
12:45 PM,64.4,64.4,100,30.08,10.0,SSE,15.0,-,N/A,,Overcast,160,2012-11-29 20:45:00
1:45 PM,64.4,64.4,100,30.06,10.0,South,12.7,-,N/A,,Overcast,170,2012-11-29 21:45:00
2:45 PM,62.6,62.6,100,30.03,10.0,SSE,13.8,-,N/A,,Overcast,160,2012-11-29 22:45:00
3:45 PM,62.6,62.6,100,30.03,10.0,SSE,12.7,-,N/A,,Overcast,160,2012-11-29 23:45:00
4:45 PM,62.6,62.6,100,30.02,10.0,SSE,12.7,-,N/A,,Overcast,160,2012-11-30 00:45:00
5:45 PM,62.6,62.6,100,30.02,10.0,SSE,13.8,-,N/A,,Mostly Cloudy,160,2012-11-30 01:45:00
6:45 PM,62.6,62.6,100,30.01,10.0,SSE,13.8,-,N/A,,Clear,160,2012-11-30 02:45:00
7:45 PM,62.6,62.6,100,30.01,10.0,South,12.7,19.6,N/A,,Mostly Cloudy,170,2012-11-30 03:45:00
8:15 PM,62.6,62.6,100,30.01,7.0,South,13.8,-,N/A,,Overcast,180,2012-11-30 04:15:00
8:35 PM,62.6,62.6,100,30.00,6.0,South,9.2,-,N/A,,Mostly Cloudy,180,2012-11-30 04:35:00
8:45 PM,62.6,62.6,100,30.00,7.0,South,11.5,-,N/A,,Mostly Cloudy,170,2012-11-30 04:45:00
8:55 PM,62.6,62.6,100,30.00,9.0,SSW,15.0,-,N/A,,Scattered Clouds,200,2012-11-30 04:55:00
9:15 PM,62.6,62.6,100,30.01,10.0,SSW,18.4,-,N/A,,Mostly Cloudy,200,2012-11-30 05:15:00
9:35 PM,62.6,62.6,100,30.01,9.0,South,18.4,24.2,N/A,,Overcast,190,2012-11-30 05:35:00
9:55 PM,62.6,62.6,100,30.01,6.0,South,18.4,-,N/A,,Mostly Cloudy,190,2012-11-30 05:55:00
10:15 PM,62.6,62.6,100,30.00,6.0,South,17.3,-,N/A,,Scattered Clouds,180,2012-11-30 06:15:00
10:35 PM,62.6,62.6,100,29.95,10.0,SSE,19.6,23.0,N/A,,Partly Cloudy,160,2012-11-30 06:35:00
10:55 PM,62.6,62.6,100,29.99,10.0,South,15.0,23.0,N/A,,Clear,180,2012-11-30 06:55:00
11:15 PM,62.6,62.6,100,29.98,7.0,South,18.4,-,N/A,,Clear,180,2012-11-30 07:15:00
11:35 PM,62.6,62.6,100,29.99,6.0,South,18.4,24.2,N/A,,Clear,190,2012-11-30 07:35:00
11:55 PM,62.6,62.6,100,29.96,9.0,South,17.3,24.2,N/A,,Clear,180,2012-11-30 07:55:00